Flag for Kazakhstan Weather past 2 weeks in Astana, Kazakhstan

Now
9 °F

Sunny.


Feels Like: -8 °F
Forecast: 0 / 26 °F
Wind: 15 mph from East

Location: Astana

Current Time: Mar 7, 2015 at 10:28:54 AM

Latest Report: Mar 7, 2015 at 10:00 AM


Visibility: 10 mi

Pressure: 30.36 "Hg

Humidity: 78%

Dew point: 3 °F

Location of AstanaLocation

Historic Weather in Astana — Graph

°F

Astana temperature yesterday

Maximum temperature yesterday: 23 °F (at 3:00 PM)
Minimum temperature yesterday: -2 °F (at 6:30 AM)
Average temperature yesterday: 11 °F

Past Weeks' High & Low Weather Summary

 TemperatureHumidityPressure
High30 °F (Feb 25, 2:00 PM)93% (Feb 21, 4:30 AM)30.63 "Hg (Feb 21, 4:30 AM)
Low-9 °F (Feb 20, 9:00 AM)61% (Feb 20, 12:00 PM)29.95 "Hg (Feb 21, 3:30 AM)
Average13 °F81%30.33 "Hg
* Reported Feb 20 9:00 AM — Mar 7 9:00 AM, Astana, Weather by CustomWeather, © 2015

Note: Actual official high and low records may vary slightly from our data, if they occured in-between our weather recording intervals... More about our weather records

Advertising

Astana weather history for previous 24 hours

 ConditionsComfort  
Time TempWeatherWind HumidityBarometerVisibility
9:00 AM
Sat, Mar 7
7 °FSunny.15 mph78%30.36 "Hg10 mi
8:30 AM5 °FClear.15 mph85%30.36 "Hg10 mi
8:00 AM5 °FClear.15 mph85%30.36 "Hg10 mi
7:30 AM5 °FClear.15 mph85%30.36 "Hg10 mi
7:00 AM5 °FClear.15 mph78%30.36 "Hg10 mi
6:30 AM5 °FClear.15 mph85%30.36 "Hg10 mi
6:00 AM5 °FClear.15 mph85%30.36 "Hg10 mi
5:30 AM5 °FClear.15 mph85%30.36 "Hg10 mi
5:00 AM5 °FClear.13 mph85%30.36 "Hg10 mi
4:30 AM5 °FClear.10 mph85%30.36 "Hg10 mi
4:00 AM5 °FClear.13 mph85%30.36 "Hg10 mi
3:30 AM7 °FClear.13 mph85%30.36 "Hg10 mi
3:00 AM7 °FClear.15 mph85%30.36 "Hg10 mi
2:30 AM7 °FClear.15 mph85%30.36 "Hg10 mi
2:00 AM9 °FClear.15 mph85%30.36 "Hg10 mi
1:30 AM9 °FClear.17 mph85%30.36 "Hg10 mi
1:00 AM10 °FClear.17 mph85%30.36 "Hg10 mi
12:30 AM10 °FClear.15 mph85%30.36 "Hg10 mi
12:00 AM10 °FClear.15 mph85%30.36 "Hg10 mi
11:30 PM
Fri, Mar 6
10 °FClear.17 mph85%30.36 "Hg10 mi
11:00 PM12 °FClear.17 mph85%30.36 "Hg10 mi
10:30 PM12 °FClear.20 mph85%30.36 "Hg10 mi
10:00 PM12 °FClear.20 mph85%30.36 "Hg10 mi
9:30 PM14 °FClear.20 mph79%30.33 "Hg10 mi
9:00 PM14 °FClear.20 mph85%30.33 "Hg10 mi
8:30 PM16 °FClear.17 mph79%30.33 "Hg10 mi
8:00 PM16 °FSunny.17 mph79%30.33 "Hg10 mi
7:30 PM16 °FSunny.17 mph86%30.33 "Hg10 mi
7:00 PM18 °FSunny.22 mph79%30.33 "Hg10 mi
6:30 PM18 °FSunny.20 mph86%30.30 "Hg10 mi
6:00 PM19 °FSunny.20 mph79%30.30 "Hg10 mi
5:30 PM21 °FSunny.20 mph80%30.30 "Hg10 mi
5:00 PM21 °FSunny.22 mph80%30.30 "Hg10 mi
4:30 PM21 °FSunny.22 mph80%30.30 "Hg10 mi
4:00 PM23 °FSunny.22 mph74%30.30 "Hg10 mi
3:30 PM23 °FSunny.20 mph74%30.27 "Hg10 mi
3:00 PM23 °FSunny.20 mph74%30.27 "Hg10 mi
2:30 PM21 °FSunny.20 mph80%30.27 "Hg10 mi
2:00 PM21 °FSunny.17 mph80%30.27 "Hg10 mi
1:30 PM21 °FSunny.17 mph74%30.27 "Hg10 mi
1:00 PM19 °FSunny.17 mph79%30.27 "Hg10 mi
12:30 PM18 °FSunny.15 mph79%30.27 "Hg10 mi
12:00 PM16 °FSunny.13 mph79%30.27 "Hg10 mi
11:30 AM14 °FSunny.10 mph85%30.27 "Hg10 mi
11:00 AM10 °FSunny.8 mph85%30.27 "Hg10 mi
10:30 AM9 °FSunny.6 mph85%30.27 "Hg10 mi
10:00 AM5 °FSunny.3 mph78%30.27 "Hg10 mi
Weather by CustomWeather, © 2015

See weather overviewHow to use our weather pages